Location: Unspecified
(48.7670°N, 0.0000°E)
Time: 04:05:09
(UTC+00:00)

Vanguard 2 Rocket - Pass Details

Date: 05 October 2020
Orbit: 554 x 3326 km, 32.9° (Epoch: 26 October)

Event Time Altitude Azimuth Distance (km) Brightness Sun altitude
Exits shadow 23:51:54 21° 109° (ESE) 5,027 10.4 -46.4°
Drops below altitude 10° 23:57:53 10° 96° (E) 6,137 11.0 -46.4°
Sets 00:03:51 0° 88° (E) 7,297 11.6 -46.3°
